[[{"header":{"parameterUnit":"m.s-1","parameterCategory":1,"la1":30.2991,"la2":30.254,"lo1":-89.0895,"lo2":-89.0444,"dy":0.0017,"dx":0.0017,"nx":28,"ny":28,"refTime":"2023-10-23T03:00:00:Z","depth":0,"parameterNumber":2,"parameterNumberName":"U-component_of_WINDS"},"data":[0,0,0,0,0,0,0,0,0,0,0,0,0,0,0,0,0,0,0,0,0,0,0,0,0,0,0,0,0,0,0,0,0,0,0,0,0,0,0,0,0,0,0,0,0,0,0,0,0,0,0,0,0,0,0,0,0,0,0.2704,0.2704,0,0.2737,0.2738,0.2738,0.2741,0.274,0.274,0.274,0.2775,0.2776,0.2778,0,0,0,0,0,0,0,0,0,0,0,0,0,0.2643,0.2644,0.2704,0.2704,0.2705,0.2737,0.2738,0.2738,0.2741,0.274,0.274,0.274,0.2775,0.2776,0.2778,0,0,0,0,0,0,0,0,0,0,0,0,0,0.2672,0.2644,0.2704,0.271,0.2711,0.2737,0.2738,0.2738,0.2741,0.274,0.274,0.2739,0.2774,0.2776,0.2778,0.2801,0,0,0.2784,0.2785,0,0,0,0,0,0,0,0,0.267,0.2674,0.2709,0.271,0.2711,0.2734,0.2729,0.2759,0.2741,0.273,0.274,0.2739,0.2762,0.2765,0.2773,0.2803,0.2804,0.2784,0.2785,0.2786,0.2787,0,0,0,0,0,0,0,0.2668,0.2673,0.2717,0.2709,0.271,0.2711,0.2715,0.2735,0.2749,0.2731,0.2731,0.2735,0.2763,0.2771,0.2773,0.2805,0.2784,0.2786,0.2787,0.2788,0.2853,0.2854,0,0,0,0,0,0,0.2665,0.2671,0.2716,0.2718,0.2689,0.2713,0.2717,0.2727,0.2748,0.2751,0.2735,0.2735,0.2768,0.2771,0.2775,0.2802,0.2786,0.2788,0.2789,0.2853,0.2854,0.2854,0,0,0,0,0,0,0.2664,0.2669,0.2715,0.2695,0.2701,0.2714,0.2726,0.2728,0.2736,0.2752,0.2754,0.2741,0.2767,0.2772,0.2794,0.2803,0.2789,0.2791,0.2852,0.2853,0.2854,0.2856,0,0,0,0,0,0,0.2662,0.2668,0.2677,0.2695,0.2702,0.2733,0.2727,0.2729,0.2739,0.2739,0.2758,0.276,0.2767,0.2791,0.2796,0.2805,0.2792,0.2851,0.2853,0.2854,0.2856,0.2857,0.2859,0,0,0,0,0,0.266,0.2677,0.2678,0.2683,0.2713,0.2734,0.2738,0.2745,0.274,0.2749,0.2759,0.276,0.2801,0.2793,0.2799,0.2809,0.2851,0.2852,0.2853,0.2855,0.2857,0.2859,0,0,0,0,0,0,0.2661,0.268,0.268,0.2704,0.2717,0.2734,0.2746,0.2747,0.2762,0.2761,0.277,0.2774,0.2796,0.2805,0.2795,0.2831,0.2826,0.2828,0.2825,0.2827,0.2828,0.2826,0.2794,0,0,0,0,0,0.2664,0.2679,0.2695,0.2714,0.2721,0.2732,0.2742,0.2746,0.276,0.2766,0.2777,0.2791,0.2807,0.2818,0.2833,0.2857,0.2861,0.2867,0.2868,0.2869,0.2871,0.2883,0.2886,0.2859,0.2859,0.2859,0,0,0.2671,0.2683,0.2692,0.2715,0.2726,0.2741,0.2737,0.2754,0.2765,0.2768,0.2789,0.2798,0.2814,0.2837,0.2847,0.2845,0.288,0.2871,0.2872,0.2873,0.2885,0.2887,0.289,0.2859,0.2859,0.2859,0,0,0.269,0.2701,0.2718,0.2728,0.2744,0.2751,0.2755,0.2772,0.2778,0.2799,0.2801,0.2815,0.2843,0.2854,0.2863,0.2885,0.2886,0.289,0.2898,0.291,0.2912,0.2914,0.2921,0.2923,0.2892,0.2892,0.2892,0,0.2696,0.272,0.2726,0.2743,0.2753,0.2755,0.2772,0.2782,0.2803,0.2809,0.2806,0.284,0.2851,0.2875,0.2881,0.2888,0.2893,0.2888,0.2911,0.2913,0.2915,0.2922,0.2924,0.2892,0.2892,0.2892,0.2892,0,0.2726,0.2742,0.2753,0.2772,0.2783,0.28,0.2809,0.2819,0.2822,0.283,0.2851,0.2864,0.2882,0.2888,0.2892,0.2913,0.291,0.2909,0.2903,0.2918,0.2924,0.2927,0.2893,0.2893,0.2892,0.2892,0,0,0.2747,0.2769,0.2773,0.2781,0.2798,0.2811,0.2827,0.2844,0.2852,0.2866,0.288,0.2902,0.2901,0.2911,0.2916,0.2926,0.2941,0.2923,0.2924,0.2925,0.2964,0.2965,0.2968,0.2942,0.2943,0.2943,0.2963,0,0.2768,0.2797,0.2803,0.2828,0.2843,0.2845,0.2859,0.2871,0.2878,0.2891,0.29,0.2915,0.2912,0.2918,0.2928,0.2937,0.2949,0.2936,0.2955,0.2955,0.295,0.2971,0.2972,0.299,0.2965,0.2966,0.2966,0,0.2797,0.281,0.2836,0.285,0.2857,0.2869,0.2884,0.2897,0.291,0.2915,0.2926,0.2929,0.2946,0.2939,0.2962,0.2953,0.2961,0.2966,0.2967,0.2969,0.2961,0.2973,0.2996,0.2998,0.297,0.297,0.297,0,0.2809,0.2833,0.2852,0.2859,0.2876,0.2885,0.2892,0.2905,0.2914,0.2928,0.2934,0.2949,0.2957,0.2969,0.2976,0.2971,0.2998,0.2993,0.3002,0.3002,0.3008,0.3007,0.3031,0.3014,0.3014,0.3013,0.3013,0,0.2831,0.2846,0.2857,0.2869,0.2886,0.2893,0.291,0.2917,0.2928,0.2941,0.2944,0.2956,0.2965,0.2978,0.2984,0.3001,0.3006,0.3009,0.3011,0.3009,0.3008,0.3014,0.3012,0.3014,0.3014,0.3014,0.3014,0,0.2847,0.2855,0.2875,0.289,0.2893,0.2905,0.2918,0.2929,0.2935,0.2951,0.2955,0.2966,0.2981,0.299,0.3009,0.3013,0.3032,0.3033,0.3028,0.3028,0.3037,0.3035,0.3065,0.3069,0.3049,0.3049,0.3049,0,0.286,0.2872,0.2888,0.2896,0.2904,0.2917,0.2927,0.2934,0.2943,0.2958,0.2967,0.2982,0.2995,0.3019,0.3029,0.3043,0.3044,0.3054,0.3047,0.3044,0.3044,0.3043,0.3043,0.3055,0.3055,0.3055,0.3055,0,0.2883,0.2886,0.2899,0.2913,0.2924,0.2935,0.2947,0.2954,0.2962,0.2973,0.2988,0.2998,0.3017,0.3032,0.3047,0.3055,0.3056,0.3057,0.306,0.3058,0.3054,0.3055,0.303,0.3057,0.3057,0.3056,0.3056,0.3056,0.2898,0.2908,0.292,0.2934,0.2943,0.2954,0.2964,0.2972,0.2984,0.3,0.3004,0.3019,0.3032,0.3052,0.306,0.3072,0.3071,0.3075,0.3076,0.3077,0.3077,0.3052,0.3075,0.3075,0.3075,0.3075,0.3075,0,0.292,0.2927,0.294,0.2956,0.2966,0.2967,0.2979,0.2988,0.3002,0.3013,0.3025,0.3042,0.3056,0.3066,0.308,0.3088,0.3089,0.3092,0.3091,0.3093,0.3078,0.3074,0.3091,0.3091,0.3091,0.3091,0.3091,0.3091,0.2932,0.2949,0.2954,0.2975,0.2982,0.2998,0.3004,0.3014,0.3022,0.3041,0.3053,0.3059,0.307,0.3084,0.3097,0.31,0.3105,0.3107,0.311,0.3096,0.3094,0.3092,0.3088,0.3108,0.3108,0.3123,0.3123,0.3124]},{"header":{"parameterUnit":"m.s-1","parameterCategory":1,"la1":30.2991,"la2":30.254,"lo1":-89.0895,"lo2":-89.0444,"dy":0.0017,"dx":0.0017,"nx":28,"ny":28,"refTime":"2023-10-23T03:00:00:Z","depth":0,"parameterNumber":3,"parameterNumberName":"V-component_of_WINDS"},"data":[0,0,0,0,0,0,0,0,0,0,0,0,0,0,0,0,0,0,0,0,0,0,0,0,0,0,0,0,0,0,0,0,0,0,0,0,0,0,0,0,0,0,0,0,0,0,0,0,0,0,0,0,0,0,0,0,0,0,0.8778,0.8777,0,0.8709,0.8709,0.8708,0.8694,0.8695,0.8695,0.8696,0.8621,0.8619,0.8616,0,0,0,0,0,0,0,0,0,0,0,0,0,0.8892,0.889,0.8778,0.8777,0.8776,0.871,0.8709,0.8708,0.8694,0.8695,0.8696,0.8696,0.8622,0.8619,0.8616,0,0,0,0,0,0,0,0,0,0,0,0,0,0.8835,0.889,0.8778,0.8762,0.8759,0.871,0.8709,0.8707,0.8694,0.8695,0.8696,0.8697,0.8623,0.8619,0.8616,0.8576,0,0,0.8604,0.8602,0,0,0,0,0,0,0,0,0.8838,0.8831,0.8765,0.8763,0.876,0.8711,0.8722,0.8663,0.8694,0.8719,0.8696,0.8697,0.865,0.8644,0.8629,0.8572,0.8569,0.8604,0.8601,0.86,0.8599,0,0,0,0,0,0,0,0.8842,0.8834,0.8751,0.8764,0.8761,0.8756,0.8749,0.871,0.868,0.8717,0.8716,0.8708,0.8649,0.8633,0.8628,0.8568,0.8604,0.86,0.8598,0.8597,0.8475,0.8474,0,0,0,0,0,0,0.885,0.8837,0.8753,0.8749,0.8802,0.8753,0.8745,0.8726,0.8681,0.8675,0.8707,0.8708,0.8639,0.8632,0.8625,0.8575,0.86,0.8596,0.8594,0.8476,0.8475,0.8474,0,0,0,0,0,0,0.8852,0.8843,0.8756,0.8793,0.8781,0.8751,0.8729,0.8724,0.8708,0.8674,0.8668,0.8697,0.8639,0.863,0.8588,0.8572,0.8595,0.8591,0.8477,0.8475,0.8474,0.8476,0,0,0,0,0,0,0.8856,0.8844,0.8829,0.8792,0.8779,0.8722,0.8728,0.8722,0.8703,0.8702,0.8663,0.8657,0.8639,0.8594,0.8585,0.8568,0.8588,0.8478,0.8476,0.8475,0.8477,0.8475,0.8473,0,0,0,0,0,0.886,0.8831,0.8828,0.8818,0.8761,0.8721,0.8713,0.8695,0.8701,0.8686,0.8664,0.8658,0.8576,0.859,0.8579,0.8561,0.8479,0.8477,0.8475,0.8478,0.8475,0.8473,0,0,0,0,0,0,0.8865,0.8826,0.8823,0.8782,0.8755,0.8719,0.8698,0.8693,0.8662,0.8663,0.864,0.8632,0.8591,0.8572,0.8588,0.852,0.8528,0.8523,0.8534,0.8531,0.8529,0.8534,0.8585,0,0,0,0,0,0.8862,0.8834,0.8801,0.8768,0.8755,0.8729,0.8711,0.87,0.867,0.8658,0.8633,0.8604,0.8571,0.855,0.8518,0.8475,0.8465,0.8457,0.8454,0.8453,0.8449,0.8424,0.8419,0.8466,0.8466,0.8466,0,0,0.8854,0.8829,0.8813,0.8768,0.8746,0.8716,0.8719,0.8688,0.8665,0.8653,0.8612,0.8593,0.8558,0.8516,0.8495,0.8498,0.8434,0.845,0.8449,0.8446,0.8421,0.8417,0.8413,0.8465,0.8465,0.8465,0,0,0.8824,0.8803,0.8773,0.8752,0.8719,0.8702,0.8695,0.866,0.8647,0.8607,0.8597,0.8569,0.8514,0.849,0.847,0.8432,0.8425,0.8423,0.841,0.8386,0.8382,0.8379,0.8365,0.836,0.8419,0.8419,0.8419,0,0.8818,0.8774,0.8758,0.8727,0.8708,0.8697,0.8666,0.8645,0.8603,0.8589,0.8594,0.8524,0.85,0.8452,0.8443,0.8427,0.8418,0.8426,0.8385,0.8381,0.8377,0.8364,0.8358,0.8419,0.8419,0.8419,0.8419,0,0.8768,0.8738,0.8717,0.8679,0.8657,0.8626,0.8604,0.8583,0.8574,0.8557,0.8515,0.8487,0.8449,0.8437,0.8427,0.8386,0.8389,0.8389,0.8396,0.8373,0.836,0.8354,0.8418,0.8419,0.8419,0.8419,0,0,0.8738,0.8693,0.8685,0.8668,0.8631,0.8607,0.8575,0.854,0.8522,0.8494,0.8466,0.842,0.842,0.8398,0.8385,0.8365,0.8336,0.8367,0.8366,0.8362,0.8289,0.8288,0.8282,0.8332,0.8331,0.833,0.8291,0,0.8704,0.8649,0.8634,0.8586,0.8557,0.8548,0.852,0.8494,0.8477,0.8449,0.843,0.8397,0.84,0.8387,0.8366,0.8344,0.8321,0.8347,0.8304,0.8303,0.8312,0.8276,0.8275,0.824,0.8286,0.8285,0.8285,0,0.8656,0.8628,0.8578,0.8546,0.8533,0.8509,0.8475,0.845,0.8419,0.8408,0.8385,0.8374,0.8339,0.835,0.8301,0.8319,0.8301,0.8287,0.8285,0.828,0.8291,0.8268,0.8228,0.8223,0.8276,0.8277,0.8278,0,0.8638,0.8589,0.8552,0.8538,0.8499,0.8482,0.8465,0.8436,0.8416,0.8386,0.8373,0.8339,0.832,0.8294,0.8274,0.8283,0.8227,0.8235,0.8216,0.8216,0.8203,0.8204,0.8159,0.8193,0.8193,0.8193,0.8193,0,0.8601,0.857,0.8544,0.8522,0.8487,0.847,0.8436,0.8418,0.8392,0.8365,0.8355,0.8329,0.8305,0.8276,0.8261,0.8222,0.8214,0.8203,0.8199,0.8203,0.8205,0.819,0.8192,0.8192,0.8192,0.8192,0.8193,0,0.8575,0.8556,0.8516,0.8484,0.8475,0.8451,0.8422,0.8399,0.8382,0.8348,0.8339,0.8312,0.8278,0.8256,0.8211,0.8201,0.8159,0.8156,0.8169,0.8167,0.8148,0.815,0.8092,0.8083,0.8124,0.8123,0.8123,0,0.8552,0.8528,0.8494,0.8476,0.8459,0.843,0.841,0.8392,0.8371,0.8336,0.8317,0.8282,0.8253,0.8198,0.8174,0.814,0.8135,0.8117,0.813,0.8135,0.8134,0.8135,0.8132,0.8115,0.8114,0.8114,0.8114,0,0.8512,0.8504,0.8477,0.8446,0.8423,0.8397,0.8371,0.8357,0.8334,0.8311,0.8277,0.8254,0.821,0.8175,0.8139,0.812,0.8112,0.811,0.8104,0.8107,0.8116,0.811,0.8163,0.8111,0.8112,0.8112,0.8112,0.8112,0.8486,0.8465,0.8438,0.8407,0.8386,0.8363,0.834,0.8321,0.8292,0.8256,0.8247,0.821,0.8181,0.8132,0.8112,0.8083,0.8085,0.8075,0.8073,0.8071,0.807,0.8122,0.8076,0.8076,0.8076,0.8076,0.8076,0,0.8446,0.8428,0.84,0.8365,0.8341,0.8339,0.831,0.8289,0.8258,0.8232,0.8204,0.8164,0.8131,0.8104,0.807,0.8051,0.8047,0.8042,0.8043,0.8038,0.807,0.8079,0.8046,0.8046,0.8046,0.8046,0.8046,0.8046,0.8422,0.8386,0.8375,0.8328,0.831,0.8275,0.8259,0.8237,0.8216,0.8173,0.8145,0.8129,0.8102,0.8066,0.8034,0.8027,0.8015,0.8011,0.8003,0.8033,0.8036,0.8039,0.8047,0.8008,0.8008,0.7973,0.7973,0.7973]}]]